Lincoln, NE

12:55 AM CST on February 27, 2017 (GMT -0600)
Lincoln Municipal

Weather History for KLNK - July, 2012

Change the Weather History Date:

Saturday, July 21, 2012

  Actual Average Record
Temperature  
Mean Temperature 85 °F 78 °F  
Max Temperature 101 °F 89 °F 107 °F (1934)
Min Temperature 69 °F 66 °F 50 °F (1970)
Degree Days  
Heating Degree Days 0 0  
Month to date heating degree days 0 0  
Since 1 June heating degree days 11 16  
Since 1 July heating degree days 0 0  
Cooling Degree Days 20 13  
Month to date cooling degree days 374 266  
Year to date cooling degree days 887 587  
Since 1 June cooling degree days 696 508  
Growing Degree Days 34 (Base 50)    
Moisture  
Dew Point 60 °F    
Average Humidity 46    
Maximum Humidity 73    
Minimum Humidity 19    
Precipitation  
Precipitation 0.00 in 0.10 in 1.70 in (1943)
Month to date precipitation T 2.38  
Year to date precipitation 13.21 17.07  
Snow  
Snow 0.00 in 0.00 in - ()
Month to date snowfall 0.0 0.0  
Since 1 July snowfall 0.0 0.0  
Snow Depth 0.00 in    
Sea Level Pressure  
Sea Level Pressure 30.00 in    
Wind  
Wind Speed 9 mph (South)    
Max Wind Speed 18 mph    
Max Gust Speed 22 mph    
Visibility 10 miles    
Events      
T = Trace of Precipitation, MM = Missing Value Source: NWS Daily Summary

Daily Weather History Graph

Daily Weather History Graph

Search for Another Location

Airport or City:

Trip Planner

Search our weather history database for the weather conditions in past years. The results will help you decide how hot, cold, wet, or windy it might be!

Date:

Astronomy

Jul. 21, 2012 Rise Set
Actual Time 6:13 AM CDT 8:52 PM CDT
Civil Twilight 5:41 AM CDT 9:24 PM CDT
Nautical Twilight 5:02 AM CDT 10:04 PM CDT
Astronomical Twilight 4:16 AM CDT 10:49 PM CDT
Moon 8:57 AM CDT (7/21) 10:03 PM CDT (7/21)
Length of Visible Light 15h 42m
Length of Day
14h 39m
Waxing Crescent, 7% of the Moon is Illuminated
Jul 21
Waxing Crescent
Jul 26
First Quarter
Aug 1
Full
Aug 9
Last Quarter
Aug 17
New

Hourly Weather History & Observations

Time (CDT) Temp. Heat Index Dew Point Humidity Pressure Visibility Wind Dir Wind Speed Gust Speed Precip Events Conditions
12:54 AM 73.9 °F - 64.0 °F 71% 30.02 in 10.0 mi South 5.8 mph - N/A   Clear
1:54 AM 75.9 °F - 64.0 °F 67% 30.02 in 10.0 mi SSW 3.5 mph - N/A   Clear
2:54 AM 71.1 °F - 63.0 °F 75% 30.02 in 9.0 mi South 6.9 mph - N/A   Clear
3:54 AM 72.0 °F - 63.0 °F 73% 30.02 in 10.0 mi SSE 4.6 mph - N/A   Clear
4:54 AM 71.6 °F - 60.8 °F 69% 30.05 in 10.0 mi South 6.9 mph - N/A   Clear
5:54 AM 71.1 °F - 60.1 °F 68% 30.04 in 10.0 mi South 3.5 mph - N/A   Clear
6:54 AM 69.1 °F - 61.0 °F 75% 30.05 in 9.0 mi South 4.6 mph - N/A   Clear
7:54 AM 73.9 °F - 62.1 °F 66% 30.04 in 9.0 mi South 8.1 mph - N/A   Clear
8:54 AM 78.1 °F - 64.0 °F 62% 30.05 in 10.0 mi SSW 10.4 mph - N/A   Clear
9:54 AM 79.0 °F - 64.0 °F 60% 30.06 in 10.0 mi SSW 8.1 mph - N/A   Clear
10:54 AM 82.0 °F 83.8 °F 64.9 °F 56% 30.05 in 10.0 mi South 6.9 mph - N/A   Clear
11:54 AM 87.1 °F 87.8 °F 63.0 °F 44% 30.05 in 10.0 mi South 9.2 mph - N/A   Clear
12:54 PM 91.9 °F 91.8 °F 61.0 °F 35% 30.03 in 10.0 mi South 10.4 mph - N/A   Clear
1:54 PM 93.9 °F 93.2 °F 59.0 °F 31% 30.01 in 10.0 mi South 11.5 mph 19.6 mph N/A   Clear
2:54 PM 98.1 °F 96.8 °F 57.0 °F 25% 29.99 in 10.0 mi South 16.1 mph 19.6 mph N/A   Clear
3:54 PM 99.0 °F 96.5 °F 53.1 °F 21% 29.97 in 10.0 mi South 9.2 mph 20.7 mph N/A   Clear
4:54 PM 100.0 °F - 51.1 °F 19% 29.95 in 10.0 mi South 12.7 mph - N/A   Clear
5:54 PM 100.0 °F - 50.0 °F 18% 29.94 in 10.0 mi SSW 17.3 mph - N/A   Clear
6:54 PM 98.1 °F - 52.0 °F 21% 29.93 in 10.0 mi South 11.5 mph - N/A   Clear
7:54 PM 93.9 °F 91.4 °F 53.1 °F 25% 29.92 in 10.0 mi SSE 10.4 mph - N/A   Clear
8:54 PM 84.0 °F 83.5 °F 57.9 °F 41% 29.92 in 10.0 mi South 6.9 mph - N/A   Clear
9:54 PM 79.0 °F - 60.1 °F 52% 29.93 in 10.0 mi South 8.1 mph - N/A   Clear
10:54 PM 79.0 °F - 62.1 °F 56% 29.94 in 10.0 mi South 6.9 mph - N/A   Clear
11:54 PM 75.9 °F - 61.0 °F 60% 29.94 in 10.0 mi South 10.4 mph - N/A   Clear